STARLINK-36188, 67122

Orbit data source: Space-Track

STARLINK-36188, 67122 is a payload satellite owned by SpaceX/Seattle (US) in LEO that was launched on Mon, 15 Dec 2025 UTC via an FALCON 9 launch vehicle from the Air Force Eastern Test Range (AFETR). Payload-class satellites include a variety of spacecraft equipped with specific instruments for various scientific and technological missions. These include communications satellites like Starlink; space stations such as the ISS; scientific satellites like the Hubble; Earth observation satellites from companies like Planet Labs, Umbra, and HawkEye 360; GPS; miniature CubeSats for education and research; and military/defense satellites.

Not visible in the next 10 days
Identifier
67122, 2025-299W
Orbit
LEO
Country
Flag of USUS
Related business
Manufacturer
SpaceX/Seattle
Mission
Operational spacecraft
Bus & Motor
STARLINK V2MO, Unknown motor
Mass
575 kg wet, ~530 kg dry
Launch date (UTC)
2025-12-15 (1 week ago)
Launch vehicle
FALCON 9
Launch site
Air Force Eastern Test Range (AFETR)
Object type
Payload
Rocket body
Debris
Shape & HBR
Unknown
Radar Cross Section
RCS unknown

Expand to show TLE details & history
Last TLE update: 6 hours ago

TLE from 6 hours ago
0 STARLINK-36188
1 67122U 25299W   25355.58335648 -.01563385  71019-3 -37497-2 0  9993
2 67122  42.9997 262.6713 0002125 264.4054 201.2534 15.95684204  2230
Epoch: 2025-12-21T14:00Z
TLE epoch observation values (Epoch: 2025-12-21T14:00:01.999Z)
Latitude
41.20671°
Longitude
73.25005°
Altitude
290.406 km
Speed
7.739 km/s
True Right ascension
00h 54m 36s
True Declination
41° 01' 28"
Sunlit
Object was in full shadow at epoch
Visualization orbit readout
Latitude
Unknown
Longitude
Unknown
Altitude
Unknown
Speed
Unknown
Apparent Right ascension
Unknown
Apparent Declination
Unknown
Sunlit
N/A
Visualization observer readout
Local Sidereal Time
19:30:31
Azimuth
Unknown
Elevation
Unknown
Doppler factor
Unknown
Orbital elements
Apogee altitude
289.828 km
Perigee altitude
286.994 km
Semi-major axis
6,666.548 km
Eccentricity
0.00021
Inclination
42.9997°
RAAN
262.6713°
Arg. of periapsis
264.4054°
True anomaly
201.24458°
Mean anomaly
201.2534°
Eccentric anomaly
201.24899°
Mean motion
3.98742 °/min
Orbital period
90.28 mins
BSTAR
-0.0037497
Loading maneuver chart data...
Computing Atmospheric mass density...
Loading historical data...
Loading historical data...
Loading historical data...
Loading historical data...
Loading historical data...
Loading historical data...
Loading historical data...

Documentation

Showing up to 5 results
|